This demonstration page uses our WeatherBlox Daily Observations layout. Learn more.

Left ArrowRight Arrow

39.51506, -84.39828

Hourly Observations for December 1, 2020

Temp ( °F °C ) Dew Point ( °F °C ) Humidity (%) Winds ( mph kmh ) Pressure ( in mb ) Visibility ( mi km ) Precip ( " mm )
12:15 am 00:15 Cloudy with Light Snow 31 -0.3 30 -0.9 96 96 NW 10 17 29.89 1012 4 6.43736 N/A
12:35 am 00:35 Cloudy with Light Snow 31 -0.3 30 -0.9 96 96 NW 10 17 29.89 1012 3 4.82802 N/A
12:55 am 00:55 Cloudy with Light Snow 31 -0.3 30 -0.9 96 96 WNW 9 15 29.89 1012 3.5 5.63269 N/A
1:15 am 01:15 Cloudy with Light Snow 31 -0.3 30 -0.9 96 96 NW 7 11 29.89 1012 3 4.82802 N/A
1:35 am 01:35 Cloudy with Light Snow 31 -0.3 30 -1 95 95 NW 6 9 29.89 1012 3.5 5.63269 N/A
1:55 am 01:55 Cloudy with Light Snow 31 -0.4 30 -1 96 96 NW 8 13 29.89 1012 4 6.43736 N/A
2:15 am 02:15 Cloudy with Light Snow 31 -0.4 30 -1.1 95 95 WNW 9 15 29.89 1012 5 8.0467 N/A
2:35 am 02:35 Cloudy with Light Snow 31 -0.4 30 -1.2 94 94 WNW 7 11 29.9 1012 4 6.43736 N/A
2:55 am 02:55 Cloudy with Light Snow 31 -0.5 30 -1.2 95 95 WNW 8 13 29.9 1012 4 6.43736 N/A
3:15 am 03:15 Cloudy with Light Snow 31 -0.6 29 -1.6 93 93 NW 13 20 29.91 1013 5 8.0467 N/A
3:35 am 03:35 Cloudy with Light Snow 31 -0.8 28 -2 92 92 NW 16 26 29.91 1013 5 8.0467 N/A
3:55 am 03:55 Cloudy with Light Snow 30 -0.9 28 -2 92 92 WNW 15 24 29.92 1013 5 8.0467 N/A
4:15 am 04:15 Cloudy with Light Snow 30 -1.3 28 -2.5 92 92 NW 12 19 29.92 1013 5 8.0467 N/A
4:35 am 04:35 Cloudy with Light Snow 29 -1.5 27 -2.8 91 91 WNW 13 20 29.92 1013 4 6.43736 N/A
4:55 am 04:55 Cloudy with Light Snow 29 -1.7 27 -2.9 92 92 WNW 12 19 29.93 1014 5 8.0467 N/A
5:15 am 05:15 Cloudy 29 -1.8 26 -3.2 90 90 WNW 12 19 29.93 1014 10 16.0934 N/A
5:35 am 05:35 Cloudy 29 -1.7 26 -3.3 89 89 WNW 12 19 29.94 1014 10 16.0934 N/A
5:55 am 05:55 Cloudy 29 -1.7 26 -3.4 88 88 NW 18 30 29.94 1014 10 16.0934 N/A
6:15 am 06:15 Cloudy 29 -1.7 26 -3.5 88 88 WNW 14 22 29.95 1014 10 16.0934 N/A
6:35 am 06:35 Cloudy 29 -1.8 26 -3.6 88 88 WNW 15 24 29.96 1015 10 16.0934 N/A
6:55 am 06:55 Cloudy 29 -1.8 26 -3.6 88 88 NW 15 24 29.96 1015 10 16.0934 N/A
7:15 am 07:15 Cloudy 29 -1.8 25 -3.7 87 87 WNW 15 24 29.97 1015 10 16.0934 N/A
7:35 am 07:35 Cloudy 29 -1.8 25 -3.8 86 86 WNW 14 22 29.97 1015 10 16.0934 N/A
7:55 am 07:55 Cloudy 29 -1.7 25 -3.7 86 86 WNW 12 19 29.98 1015 10 16.0934 N/A
8:15 am 08:15 Cloudy 29 -1.6 25 -3.7 86 86 WNW 14 22 29.98 1015 10 16.0934 N/A
8:35 am 08:35 Cloudy 29 -1.5 26 -3.5 86 86 W 14 22 29.99 1016 10 16.0934 N/A
8:55 am 08:55 Cloudy 29 -1.4 26 -3.6 85 85 WNW 15 24 29.99 1016 10 16.0934 N/A
9:15 am 09:15 Cloudy 30 -1.3 26 -3.4 86 86 WNW 13 20 30 1016 10 16.0934 N/A
9:35 am 09:35 Cloudy 30 -1.3 26 -3.4 86 86 WNW 15 24 30 1016 10 16.0934 N/A
9:55 am 09:55 Cloudy 30 -1.2 26 -3.4 85 85 WNW 16 26 30 1016 10 16.0934 N/A
10:15 am 10:15 Cloudy 30 -1.1 26 -3.3 85 85 WNW 13 20 30.01 1016 10 16.0934 N/A
10:35 am 10:35 Cloudy 30 -1 26 -3.2 85 85 WNW 13 20 30.01 1016 10 16.0934 N/A
10:55 am 10:55 Cloudy 30 -0.9 26 -3.1 85 85 WNW 14 22 30.02 1017 10 16.0934 N/A
11:15 am 11:15 Cloudy 31 -0.7 27 -3 85 85 WNW 13 20 30.02 1016 10 16.0934 N/A
11:35 am 11:35 Cloudy 31 -0.6 27 -2.9 85 85 WNW 13 20 30.02 1016 10 16.0934 N/A
11:55 am 11:55 Cloudy 31 -0.5 27 -2.9 84 84 WNW 15 24 30.02 1016 10 16.0934 N/A
12:15 pm 12:15 Cloudy 31 -0.5 27 -2.9 84 84 W 15 24 30.02 1016 10 16.0934 N/A
12:35 pm 12:35 Cloudy 31 -0.4 27 -2.9 83 83 WNW 16 26 30.02 1016 10 16.0934 N/A
12:55 pm 12:55 Cloudy 31 -0.4 27 -3 83 83 WNW 16 26 30.02 1016 10 16.0934 N/A
1:15 pm 13:15 Cloudy 31 -0.3 27 -3 82 82 WNW 14 22 30.02 1016 10 16.0934 N/A
1:35 pm 13:35 Cloudy 32 -0.2 26 -3.1 81 81 WNW 13 20 30.02 1016 10 16.0934 N/A
1:55 pm 13:55 Cloudy 32 -0.1 26 -3.4 79 79 WNW 17 28 30.02 1016 10 16.0934 N/A
2:15 pm 14:15 Cloudy 32 -0.1 26 -3.5 78 78 WNW 16 26 30.03 1017 10 16.0934 N/A
2:35 pm 14:35 Cloudy 31 -0.3 25 -3.8 78 78 WNW 15 24 30.03 1017 10 16.0934 N/A
2:55 pm 14:55 Cloudy 32 -0.2 26 -3.6 78 78 WNW 10 17 30.04 1017 10 16.0934 N/A
3:15 pm 15:15 Cloudy 32 -0.2 26 -3.5 79 79 W 13 20 30.04 1017 10 16.0934 N/A
3:35 pm 15:35 Cloudy 32 -0.1 25 -3.8 76 76 W 12 19 30.04 1017 10 16.0934 N/A
3:55 pm 15:55 Cloudy 32 -0.1 25 -3.9 76 76 WNW 14 22 30.06 1018 10 16.0934 N/A
4:15 pm 16:15 Cloudy 32 undefined 25 -3.9 75 75 WNW 10 17 30.06 1018 10 16.0934 N/A
4:35 pm 16:35 Cloudy 32 undefined 25 -4.1 74 74 W 13 20 30.07 1018 10 16.0934 N/A
4:55 pm 16:55 Cloudy 32 0.1 25 -4.1 74 74 WNW 12 19 30.06 1018 10 16.0934 N/A
5:15 pm 17:15 Cloudy 32 undefined 25 -3.9 75 75 WNW 9 15 30.08 1018 10 16.0934 N/A
5:35 pm 17:35 Cloudy 32 0.1 25 -4.1 74 74 W 13 20 30.09 1019 10 16.0934 N/A
5:55 pm 17:55 Cloudy 32 0.1 24 -4.2 73 73 W 9 15 30.09 1019 10 16.0934 N/A
6:15 pm 18:15 Cloudy 32 undefined 25 -4.1 74 74 WNW 12 19 30.11 1019 10 16.0934 N/A
6:35 pm 18:35 Cloudy 32 -0.1 24 -4.3 74 74 WNW 12 19 30.12 1020 10 16.0934 N/A
6:55 pm 18:55 Cloudy 32 -0.1 24 -4.3 74 74 WNW 14 22 30.14 1021 10 16.0934 N/A
7:15 pm 19:15 Cloudy 32 -0.2 25 -4.1 75 75 W 12 19 30.14 1021 10 16.0934 N/A
7:35 pm 19:35 Cloudy 32 -0.2 25 -4.1 75 75 W 10 17 30.15 1021 10 16.0934 N/A
7:55 pm 19:55 Cloudy 31 -0.3 25 -4.1 76 76 WNW 12 19 30.15 1021 10 16.0934 N/A
8:15 pm 20:15 Cloudy 31 -0.3 25 -4.1 76 76 WNW 13 20 30.16 1021 10 16.0934 N/A
8:35 pm 20:35 Cloudy 31 -0.4 24 -4.3 75 75 W 10 17 30.17 1022 10 16.0934 N/A
8:55 pm 20:55 Cloudy 31 -0.5 24 -4.3 76 76 WNW 13 20 30.18 1022 10 16.0934 N/A
9:15 pm 21:15 Cloudy 31 -0.5 24 -4.3 76 76 WNW 13 20 30.18 1022 10 16.0934 N/A
9:35 pm 21:35 Cloudy 31 -0.6 24 -4.3 76 76 WNW 13 20 30.18 1022 10 16.0934 N/A
9:55 pm 21:55 Cloudy 31 -0.6 24 -4.2 77 77 WNW 12 19 30.19 1022 10 16.0934 N/A
10:15 pm 22:15 Cloudy 31 -0.7 24 -4.3 77 77 WNW 10 17 30.19 1022 10 16.0934 N/A
10:35 pm 22:35 Cloudy 31 -0.8 24 -4.4 77 77 WNW 12 19 30.19 1022 10 16.0934 N/A
10:55 pm 22:55 Cloudy 31 -0.8 24 -4.5 76 76 WNW 10 17 30.2 1023 10 16.0934 N/A
11:15 pm 23:15 Cloudy 31 -0.8 24 -4.4 77 77 W 8 13 30.2 1023 10 16.0934 N/A
11:35 pm 23:35 Cloudy 30 -0.9 24 -4.4 77 77 W 8 13 30.21 1023 10 16.0934 N/A
11:55 pm 23:55 Cloudy 30 -1 24 -4.6 77 77 W 7 11 30.21 1023 10 16.0934 N/A

Powered by AerisWeather